Regional Weather Roundup
Issued by NWS Charleston, SC

Current Version | Previous Version | Graphics & Text | Print | Product List | Glossary On
Versions: 1 2 3 4 5 6 7 8 9 10 11 12 13 14 15 16 17 18 19 20 21 22 23 24 25 26 27 28 29 30 31 32 33 34 35 36 37 38 39 40 41 42 43 44 45 46 47 48 49 50
000
ASUS42 KCHS 031211
RWRCHS

REGIONAL WEATHER ROUNDUP
NATIONAL WEATHER SERVICE CHARLESTON SC
700 AM EST TUE MAR 03 2015

NOTE: "FAIR" INDICATES FEW OR NO CLOUDS BELOW 12,000 FEET WITH NO
SIGNIFICANT WEATHER AND/OR OBSTRUCTIONS TO VISIBILITY.

NOT ALL STATIONS ARE QUALITY CONTROLLED BY THE NATIONAL
WEATHER SERVICE. USE DATA WITH CAUTION...ESPECIALLY
DEWPOINT OBSERVATIONS.

SCZ027-030-031-034>040-042>050-031300-
...SOUTHEAST SOUTH CAROLINA...

CITY           SKY/WX    TMP DP  RH WIND       PRES   REMARKS
N CHARLESTON   CLOUDY    54  49  83 E8        30.27R
6HR MIN TEMP:  54; 6HR MAX TEMP:  57;

WATERFRONT PRK   N/A     52 N/A N/A NE12        N/A
MOUNT PLEASANT CLOUDY    52  46  82 NE8       30.27R
PINOPOLIS      NOT AVBL
MONCKS CORNER  CLOUDY    52  48  87 E6        30.27S
SUMMERVILLE    CLOUDY    54  52  94 E5        30.27F
BEAUFORT MCAS  CLOUDY    55  53  93 CALM      30.25S
6HR MIN TEMP:  54; 6HR MAX TEMP:  56;

BEAUFORT ARPT  CLOUDY    55  54  94 E9        30.25R
HILTON HEAD IS CLOUDY    54  54 100 NE9       30.24
WALTERBORO     DRIZZLE   55  55 100 E6        30.26S
ALLENDALE      CLOUDY    55  55 100 VRB5      30.24R FOG

...SOUTHERN MIDLANDS AND PEE DEE...

CITY           SKY/WX    TMP DP  RH WIND       PRES   REMARKS
GEORGETOWN     NOT AVBL
KINGSTREE      NOT AVBL
ORANGEBURG     CLOUDY    53  48  83 E5        30.27R
6HR MIN TEMP:  53; 6HR MAX TEMP:  57; 6HR PCP: TRACE;

BARNWELL       DRIZZLE   55  54  94 E5        30.26R
AIKEN          DRIZZLE   54  54 100 E5        30.27F
MANNING        CLOUDY   N/A N/A N/A E3        30.29R
COLUMBIA       LGT RAIN  54  51  90 E9        30.26S FOG
6HR MIN TEMP:  54; 6HR MAX TEMP:  59; 6HR PCP: TRACE;

SUMTER         CLOUDY    49  45  86 E13       30.27R
6HR MIN TEMP:  49; 6HR MAX TEMP:  55;

FLORENCE       CLOUDY    44  32  62 E12       30.32R
6HR MIN TEMP:  44; 6HR MAX TEMP:  50; 6HR PCP: TRACE;

MYRTLE BEACH   CLOUDY    48  34  57 NE13      30.33R
N MYRTLE BEACH LGT RAIN  45  34  65 NE8       30.31R
6HR MIN TEMP:  45; 6HR MAX TEMP:  49; 6HR PCP: TRACE;


$$

GAZ063-065-086>088-099>101-113>116-118-119-134>141-150-031300-
...SOUTHEAST GEORGIA...

CITY           SKY/WX    TMP DP  RH WIND       PRES   REMARKS
SAVANNAH ARPT  FOG       56  55  97 E5        30.24R VSB 1/4
6HR MIN TEMP:  55; 6HR MAX TEMP:  59;

HUNTER AAF     FOG       55  55 100 E5        30.21S VSB 1/2
6HR MIN TEMP:  55; 6HR MAX TEMP:  59;

FORT STEWART   CLOUDY    58  56  96 CALM      30.21R
6HR MIN TEMP:  56; 6HR MAX TEMP:  58;

STATESBORO     RAIN      57  57 100 CALM      30.24R
SYLVANIA       FOG       56  56 100 CALM      30.24S VSB 1
CLAXTON        CLOUDY    59  59 100 CALM      30.23R FOG

...CSRA...CENTRAL AND FAR SOUTHEAST GEORGIA...

CITY           SKY/WX    TMP DP  RH WIND       PRES   REMARKS
THOMSON        CLOUDY    58  58 100 CALM      30.26S
AUGUSTA-BUSH   CLOUDY    56  54  93 SE5       30.24R FOG
6HR MIN TEMP:  56; 6HR MAX TEMP:  59; 6HR PCP: TRACE;

AUGUSTA-DANIEL FOG       58  54  86 E8        30.23F VSB 3/4
SWAINSBORO     NOT AVBL
VIDALIA        LGT RAIN  59  59 100 CALM      30.23R
EASTMAN        CLOUDY    60  60 100 CALM      30.24S
HAZLEHURST     CLOUDY    60  60 100 CALM      30.22R
ALMA           FOG       54  54 100 CALM      30.22R VSB 1/2
6HR MIN TEMP:  53; 6HR MAX TEMP:  56;

WAYCROSS       FOG       58  58 100 N3        30.21R VSB 1/4
JESUP          CLOUDY    61  61 100 CALM      30.23R FOG
BAXLEY         CLOUDY    59  57  94 CALM      30.22R FOG
BRUNSWICK      CLOUDY    59  57  94 CALM      30.23F
SAINT SIMONS   CLOUDY    58  56  93 CALM      30.22S
6HR MIN TEMP:  56; 6HR MAX TEMP:  60;


$$

SCZ027-028-034-036>038-045-046-048>050-GAZ119-141-031300-
...LAKE AND SUPPLEMENTAL COASTAL OBSERVATIONS...

STATION/POSITION TIME  TEMP    WIND        PRES    WAVE   SWELL
                       AIR SEA DIR/SP/G            HT/PER HT/PER/DIR
                 (UTC) (F)     (DEG/KT/KT) (MB)    (FT/S) (FT/S/D)
UPR LAKE MARION  NOT AVBL
WINYAH BAY       NOT AVBL
LAKE MURRAY      1100   53      60/  3/  6 1024.4R
ACE BASIN NERRS  NOT AVBL
FORT PULASKI     1112   50 49              1024.3R
SAPELO ISLAND    1100   55        CALM     1023.0S

$$

ANZ835-935-AMZ111-154-330-350-352-354-370-450-454-472-031300-
...C-MAN AND BUOY OBSERVATIONS...

STATION/POSITION TIME  TEMP    WIND        PRES    WAVE   SWELL
                       AIR SEA DIR/SP/G            HT/PER HT/PER/DIR
                 (UTC) (F)     (DEG/KT/KT) (MB)    (FT/S) (FT/S/D)
BUOY 41004       1150   67 69   80/ 14/ 16 1023.5S   4/ 9   3/ 9
BUOY 41008       1150   57 54  170/  4/  6 1023.5R   2/ 9   2/110/ 9
FOLLY BEACH CMAN 1200   49      40/ 18/ 21 1025.2R
CAPERS NEARSHORE NOT AVBL
FRIPP NEARSHORE  1100   50      60/ 10/ 12 1023.3R


STATION/POSITION TIME  TEMP    WIND        PRES    WAVE   SWELL
                       AIR SEA DIR/SP/G            HT/PER HT/PER/DIR
                 (UTC) (F)     (DEG/KT/KT) (MB)    (FT/S) (FT/S/D)
5E ST. MARYS GA  1121      53                N/A     3/ 8
FRYING PAN BUOY  1150   58 61   60/ 17/ 19 1025.9R   6/ 6   2/150/ 9
BUOY 41025       NOT AVBL
CAPE LOOKOUT NC  1200   43      30/ 17/ 19 1027.3F
BUOY 41002       1150   65 73   70/ 17/ 21 1025.1S   7/ 6   3/120/ 9
BUOY 41010       1120   72 75   60/  8/  8 1023.3R
ST AUGUSTINE FL  1200   58        CALM     1024.2R


$$



USA.gov is the U.S. government's official web portal to all federal, state and local government web resources and services.